Regional Weather Roundup
Issued by NWS State College, PA

Home | Current Version | Previous Version | Text Only | Print | Product List | Glossary Off
Versions: 1 2 3 4 5 6 7 8 9 10 11 12 13 14 15 16 17 18 19 20 21 22 23 24 25 26 27 28 29 30 31 32 33 34 35 36 37 38 39 40 41 42 43 44 45 46 47 48 49 50

000
ASUS41 KCTP 240903
RWRCTP

REGIONAL WEATHER ROUNDUP
NATIONAL WEATHER SERVICE STATE COLLEGE PA
500 AM EDT FRI MAR 24 2017

Note: "fair" indicates few or no clouds below 12,000 feet with no
significant weather and/or obstructions to visibility.

* = STATION THAT DOES NOT REPORT PRECIPITATION /E.G. RAIN...SNOW...ETC/
    THUNDER OR FOG.

PAZ002>004-007>009-013>016-020>023-029>032-241000-
WESTERN PENNSYLVANIA

CITY           SKY/WX    TMP DP  RH WIND       PRES   REMARKS
ERIE           LGT RAIN  41  26  55 S14G23    30.13F
MEADVILLE      LGT RAIN  38  25  59 S8        30.14F
FRANKLIN*      CLOUDY    36  19  51 S10       30.19R
NEW CASTLE     LGT RAIN  37  34  89 SE3       30.22R
BEAVER COUNTY  NOT AVBL
BUTLER*        CLOUDY    43  21  42 SW6       30.22R
PITTSBURGH INT LGT RAIN  43  29  57 SW5       30.21R
PITTSBURGH     LGT RAIN  42  23  46 S8        30.20S
INDIANA*       CLOUDY    43  19  39 S9        30.23F
LATROBE        CLOUDY    50  23  34 S9        30.20F
WASHINGTON CO* CLOUDY    43  27  52 CALM      30.22S
$$

PAZ004>006-010>012-017>019-024>028-033>037-041-042-045-046-049>053-241000-
CENTRAL PENNSYLVANIA

CITY           SKY/WX    TMP DP  RH WIND       PRES   REMARKS
BRADFORD       CLOUDY    36  12  37 S9        30.16F
DUBOIS         CLOUDY    36  13  38 SE10      30.17F
CLEARFIELD       N/A    N/A N/A N/A MISG      30.24F
JOHNSTOWN      CLOUDY    38  16  40 S8        30.21F
ALTOONA        CLOUDY    38  17  42 S10       30.28F
STATE COLLEGE  CLOUDY    36  14  40 SW5       30.29F
WILLIAMSPORT   CLOUDY    36  14  40 NE14G21   30.34F
SELINSGROVE    CLOUDY    35  19  52 S7        30.37F
FT INDIANTOWN  CLOUDY    26  21  80 CALM      30.42F
CAPITAL CITY   CLOUDY    35  18  49 E5        30.42F
HARRISBURG     CLOUDY    35  22  58 SE7       30.42F
YORK           CLOUDY    33  20  58 CALM      30.41F
$$

PAZ038>040-043-044-047-048-054-055-060>062-067>071-241000-
EASTERN PENNSYLVANIA

CITY           SKY/WX    TMP DP  RH WIND       PRES   REMARKS
SCRANTON       CLOUDY    34  13  41 SW5       30.36F
MOUNT POCONO   CLOUDY    28  11  48 S13       30.35S
ALLENTOWN      CLOUDY    30  16  56 SW7       30.47R
QUAKERTOWN*    CLOUDY    27  19  74 CALM      30.47R
READING        PTCLDY    33  14  45 S6        30.44S
LANCASTER      CLOUDY    34  23  64 S7        30.44F
COATESVILLE    CLOUDY    32  12  43 VRB6G13   30.47S
POTTSTOWN      PTCLDY    32  14  47 S3        30.49R
BLUE BELL      CLOUDY    30  23  74 CALM      30.48R
DOYLESTOWN     PTCLDY    25  21  85 SW3       30.47R
WILLOW GROVE   NOT AVBL
NORTH PHILA    CLOUDY    34  25  69 S5        30.51R
PHILADELPHIA   CLOUDY    33  23  66 S7        30.51R
$$



USA.gov is the U.S. government's official web portal to all federal, state and local government web resources and services.